AirNav   Air Wisconsin pilot careers
 
 1506 users online  

PN35 Flying R Airport
Harrisonville, Pennsylvania, USA

GOING TO HARRISONVILLE?


FAA INFORMATION EFFECTIVE 01 FEBRUARY 2018

Location

FAA Identifier: PN35
Lat/Long: 40-00-00.3090N / 078-04-59.0190W
40-00.005150N / 078-04.983650W
40.0000858 / -78.0830608
(estimated)
Elevation: 960 ft. / 293 m (estimated)
Variation: 09W (1985)
From city: 2 miles S of HARRISONVILLE, PA
Time zone: UTC -5 (UTC -4 during Daylight Saving Time)
Zip code: 17228

Airport Operations

Airport use: Private use. Permission required prior to landing
Activation date: 01/1974
Control tower: no
ARTCC: CLEVELAND CENTER
FSS: WILLIAMSPORT FLIGHT SERVICE STATION
Attendance: UNATNDD
Wind indicator: yes
Segmented circle: no

Nearby radio navigation aids

VOR radial/distance  VOR name  Freq  Var
THSr310/7.3ST THOMAS VORTAC115.0007W
HGRr337/(20.9)HAGERSTOWN VOR109.8007W
AOOr160/(22.0)ALTOONA VOR108.8007W
MRBr351/38.4MARTINSBURG VORTAC112.1007W
JSTr125/39.3JOHNSTOWN VOR/DME113.0006W

 
NDB name  Hdg/Dist  Freq  Var  ID
CUMBERLAND065/37.231710WCBE -.-. -... .
STOYSTOWN108/38.620910WSYS ... -.-- ...

Airport Services

Runway Information

Runway 5/23

Dimensions: 1600 x 50 ft. / 488 x 15 m
Surface: turf
RUNWAY 5  RUNWAY 23
Traffic pattern: leftleft
Obstructions: none68 ft. tree, 77 ft. from runway

Airport Ownership and Management from official FAA records

Ownership: Privately-owned
Owner: KENNETH V. ROUZER
1171 POSSUM HOLLOW RD
HARRISONVILLE, PA 17228
Phone 717-485-3788
Manager: KENNETH V. ROUZER
1171 POSSUM HOLLOW RD
HARRISONVILLE, PA 17228
Phone 717-485-3788

Airport Operational Statistics

Aircraft based on the field: 1
Single engine airplanes: 1
    

Additional Remarks

RUNWAY 50-100 FT WIDE WITH SLIGHT DOG LEG.

Instrument Procedures

There are no published instrument procedures at PN35.

Some nearby airports with instrument procedures:

W35 - Potomac Airpark (19 nm S)
N68 - Franklin County Regional Airport (20 nm E)
KHMZ - Bedford County Airport (20 nm W)
KAOO - Altoona-Blair County Airport (21 nm NW)
KHGR - Hagerstown Regional Airport-Richard A Henson Field (24 nm SE)
 
Loc | Ops | Rwys | IFR | FBO | Links
Com | Nav | Svcs | Stats | Notes

AirNav Hotels Sweepstakes
 
Area around PN35 (Flying R Airport)
 
Road maps at: MapQuest Bing Google
 
Aerial photo
No photo
 
Sectional chart

 
Airport distance calculator
Flying to Flying R Airport? Find the distance to fly.

From to PN35

Sunrise and sunset
Times for 23-Feb-2018
 Local
(UTC-5)
 Zulu
(UTC)
Morning civil twilight06:2811:28
Sunrise06:5511:55
Sunset17:5622:56
Evening civil twilight18:2323:23

Current date and time
Zulu (UTC)  23-Feb-2018 20:16:16
Local (UTC-5)  23-Feb-2018 15:16:16
 
METAR
KHMZ 
20nm W 
231955Z AUTO 14005KT 7SM OVC006 05/04 A3031 RMK AO2 T00450036
KAOO 
21nm NW 
232004Z AUTO 19007KT 10SM BKN008 BKN013 OVC026 04/03 A3029 RMK AO2 RAE1954 P0000 T00440033
KHGR 
24nm SE 
231953Z 19006KT 5SM -RA BR OVC006 07/05 A3036 RMK AO2 RAB30 SLP296 P0002 T00670050
KMRB 
36nm S 
231953Z 15006KT 10SM OVC010 07/05 A3034 RMK AO2 SLP276 T00720050
KCBE 
39nm SW 
231957Z AUTO 34003KT 4SM SCT006 OVC012 07/06 A3037 RMK AO1
KJST 
39nm NW 
231954Z AUTO 18008KT 10SM BKN010 OVC018 06/05 A3023 RMK AO2 RAB05E39 CIG 008V013 SLP251 P0000 T00610050
TAF
KAOO 
21nm NW 
231737Z 2318/2418 21010G15KT 4SM -RA BR OVC003 WS020/23042KT FM240500 VRB05KT 4SM BR OVC015 WS020/23042KT FM241200 34003KT 6SM BR OVC015 FM241500 02003KT 1 1/2SM -RA BR OVC010
NOTAMs
Click for the latest NOTAMs
NOTAMs are issued by the DoD/FAA and will open in a separate window not controlled by AirNav.

 

 
 

Would you like to see your business listed on this page?

 If your business provides an interesting product or service to pilots, flight crews, aircraft, or users of the Flying R Airport, you should consider listing it here.  To start the listing process, click on the button below
 
Add a business
 

Other Pages about Flying R Airport

Update a link
 
Copyright © AirNav, LLC. All rights reserved. Privacy Policy  Contact